Flag for Poland Past Weather in Lidzbark Warmiński, Poland — Yesterday and Last 2 Weeks

Now
72 °F

Mild.


Feels Like: 76 °F
Forecast: 46 / 65 °F
Wind: 5 mph from North

Location: Ketrzyn

Current Time: May 25, 2016 at 7:07:30 PM

Latest Report: May 25, 2016 at 6:00 PM


Visibility: 19 mi

Pressure: 29.79 "Hg

Humidity: 57%

Dew Point: 56 °F

Location of Lidzbark WarmińskiLocation

Past Weather in Lidzbark Warmiński — Graph

°F

Lidzbark Warmiński Temperature Yesterday

Maximum temperature yesterday: 75 °F (at 3:00 PM)
Minimum temperature yesterday: 55 °F (at 5:00 AM)
Average temperature yesterday: 66 °F

High & Low Weather Summary for the Past Weeks

 TemperatureHumidityPressure
High76 °F (May 23, 2:00 PM)97% (May 18, 3:00 AM)30.08 "Hg (May 18, 3:00 AM)
Low38 °F (May 18, 5:00 AM)32% (May 10, 7:00 PM)29.41 "Hg (May 14, 4:00 AM)
Average57 °F71%29.84 "Hg
* Reported May 10 6:00 PM — May 25 6:00 PM, Lidzbark Warmiński, Weather by CustomWeather, © 2016

Note: Actual official high and low records may vary slightly from our data, if they occured in-between our weather recording intervals... More about our weather records

Advertising

Lidzbark Warmiński Weather History for the Previous 24 Hours

Scroll right to see more
 ConditionsComfort  
Time TempWeatherWind HumidityBarometerVisibility
6:00 PM
Wed, May 25
72 °FMild.5 mph57%29.79 "Hg19 mi
5:00 PM71 °FMild.5 mph60%29.79 "Hg19 mi
4:00 PM69 °FMild.5 mph60%29.80 "Hg22 mi
3:00 PM73 °FMild.3 mph51%29.79 "Hg19 mi
2:00 PM71 °FMild.5 mph53%29.80 "Hg19 mi
1:00 PM73 °FMild.3 mph48%29.80 "Hg17 mi
12:00 PM72 °FMild.3 mph51%29.81 "Hg17 mi
11:00 AM70 °FMild.3 mph65%29.81 "Hg19 mi
10:00 AM66 °FMild.3 mph73%29.82 "Hg16 mi
9:00 AM64 °FMild.3 mph69%29.82 "Hg16 mi
8:00 AM60 °FCool.2 mph80%29.82 "Hg14 mi
7:00 AM56 °FCool.1 mph85%29.81 "Hg11 mi
6:00 AM52 °FCool.1 mph90%29.82 "Hg14 mi
5:00 AM49 °FCool.No wind91%29.82 "Hg8 mi
4:00 AM50 °FCool.1 mph91%29.82 "Hg10 mi
3:00 AM50 °FCool.No wind91%29.83 "Hg11 mi
2:00 AM53 °FCool.No wind85%29.83 "Hg16 mi
1:00 AM54 °FCool.2 mph82%29.83 "Hg19 mi
12:00 AM55 °FCool.2 mph77%29.83 "Hg19 mi
11:00 PM
Tue, May 24
58 °FCool.No wind67%29.82 "Hg25 mi
10:00 PM65 °FMild.3 mph54%29.81 "Hg28 mi
9:00 PM67 °FMild.2 mph48%29.81 "Hg28 mi
8:00 PM70 °FMild.2 mph43%29.80 "Hg12 mi
7:00 PM72 °FMild.3 mph42%29.80 "Hg22 mi
Weather by CustomWeather, © 2016

See weather overviewHow to use our weather pages